FW3933 Weather Reports


Display with metric or nautical units.
time (UTC)temp
F
wind
direction
speed
MPH
gust
MPH
rain 1hr
in
rain 24hr
in
rain mn
in
humidity
%
barometer
mb
20260509051543 65 252 0.0 5.0 0.00 0.00 0.00 56 1020.9
20260509051037 65 288 0.0 9.0 0.00 0.00 0.00 55 1020.9
20260509050537 65 293 0.0 9.0 0.00 0.00 0.00 53 1020.9
20260509050050 65 294 1.0 7.0 0.00 0.00 0.00 55 1020.9
20260509045536 65 234 1.0 6.0 0.00 0.00 0.00 55 1020.8
20260509045037 65 248 1.0 10.0 0.00 0.00 0.00 52 1020.8
20260509044537 65 282 0.0 12.0 0.00 0.00 0.00 54 1020.7
20260509044036 65 273 0.0 6.0 0.00 0.00 0.00 53 1020.8
20260509043536 65 268 0.0 7.0 0.00 0.00 0.00 55 1020.8
20260509043043 66 300 1.0 7.0 0.00 0.00 0.00 54 1020.7
20260509042536 66 272 1.0 10.0 0.00 0.00 0.00 53 1020.6
20260509042036 66 278 0.0 10.0 0.00 0.00 0.00 52 1020.6
20260509041539 66 194 1.0 9.0 0.00 0.00 0.00 50 1020.5
20260509041036 66 218 0.0 9.0 0.00 0.00 0.00 50 1020.6
20260509040535 66 324 0.0 9.0 0.00 0.00 0.00 52 1020.5
20260509040038 66 239 1.0 9.0 0.00 0.00 0.00 53 1020.5
20260509035535 67 271 0.0 7.0 0.00 0.00 0.00 53 1020.6
20260509035036 67 201 1.0 7.0 0.00 0.00 0.00 51 1020.4
20260509034536 67 287 0.0 10.0 0.00 0.00 0.00 52 1020.3
20260509034035 67 249 1.0 10.0 0.00 0.00 0.00 52 1020.4
20260509033535 67 257 1.0 8.0 0.00 0.00 0.00 51 1020.3
20260509033041 67 261 0.0 8.0 0.00 0.00 0.00 52 1020.3
20260509032535 68 258 1.0 10.0 0.00 0.00 0.00 53 1020.3
20260509032037 68 293 0.0 10.0 0.00 0.00 0.00 54 1020.1
20260509031536 68 284 1.0 8.0 0.00 0.00 0.00 52 1020.2
20260509031035 68 257 1.0 8.0 0.00 0.00 0.00 53 1020.2
20260509030535 69 270 0.0 7.0 0.00 0.00 0.00 52 1020.0
20260509030038 69 225 0.0 7.0 0.00 0.00 0.00 51 1020.0
20260509025539 69 217 0.0 7.0 0.00 0.00 0.00 51 1020.0
20260509025035 69 290 0.0 7.0 0.00 0.00 0.00 51 1020.0
20260509024540 69 314 1.0 9.0 0.00 0.00 0.00 52 1020.1
20260509024035 70 290 1.0 8.0 0.00 0.00 0.00 52 1020.0
20260509023535 70 264 1.0 8.0 0.00 0.00 0.00 51 1019.9
20260509023036 70 294 0.0 8.0 0.00 0.00 0.00 51 1019.8
20260509022536 71 283 1.0 8.0 0.00 0.00 0.00 51 1019.7
20260509022035 71 269 1.0 9.0 0.00 0.00 0.00 52 1019.8
20260509021535 72 276 0.0 8.0 0.00 0.00 0.00 53 1019.7
20260509021034 72 256 0.0 9.0 0.00 0.00 0.00 53 1019.7
20260509020533 72 294 1.0 9.0 0.00 0.00 0.00 53 1019.8
20260509020036 73 260 0.0 10.0 0.00 0.00 0.00 50 1019.8
20260509015534 73 285 0.0 10.0 0.00 0.00 0.00 49 1019.9
20260509015034 73 264 0.0 9.0 0.00 0.00 0.00 48 1019.8
20260509014533 73 257 2.0 8.0 0.00 0.00 0.00 49 1019.8
20260509014034 73 239 2.0 9.0 0.00 0.00 0.00 50 1019.9
20260509013533 74 295 1.0 9.0 0.00 0.00 0.00 52 1019.8
20260509013038 74 344 1.0 11.0 0.00 0.00 0.00 49 1019.8
20260509012533 74 146 2.0 9.0 0.00 0.00 0.00 48 1019.9
20260509012033 75 199 1.0 10.0 0.00 0.00 0.00 49 1019.8
20260509011533 75 183 1.0 8.0 0.00 0.00 0.00 47 1019.8
20260509011045 75 268 1.0 9.0 0.00 0.00 0.00 46 1019.8
20260509010547 75 297 0.0 9.0 0.00 0.00 0.00 47 1019.7
20260509010045 75 262 1.0 9.0 0.00 0.00 0.00 49 1019.9
20260509005544 75 284 1.0 9.0 0.00 0.00 0.00 46 1019.9
20260509005043 76 300 0.0 10.0 0.00 0.00 0.00 49 1019.9
20260509004554 76 261 0.0 10.0 0.00 0.00 0.00 50 1020.0
20260509004046 76 280 0.0 11.0 0.00 0.00 0.00 48 1020.0
20260509003544 76 290 1.0 11.0 0.00 0.00 0.00 47 1020.0
20260509003045 76 326 0.0 7.0 0.00 0.00 0.00 50 1020.0
20260509002546 75 313 0.0 11.0 0.00 0.00 0.00 52 1020.0
20260509002043 76 327 3.0 10.0 0.00 0.00 0.00 51 1020.0
20260509001544 76 321 0.0 10.0 0.00 0.00 0.00 48 1020.1
20260509001028 76 320 1.0 10.0 0.00 0.00 0.00 48 1020.0
20260509000529 76 299 4.0 10.0 0.00 0.00 0.00 49 1020.1
20260509000039 76 294 3.0 12.0 0.00 0.00 0.00 46 1020.1
20260508235529 77 292 3.0 12.0 0.00 0.00 0.00 44 1020.1
20260508235029 77 341 3.0 12.0 0.00 0.00 0.00 43 1020.2
20260508234529 77 303 3.0 11.0 0.00 0.00 0.00 44 1020.1
20260508234028 78 313 3.0 13.0 0.00 0.00 0.00 46 1020.2
20260508233531 79 282 3.0 13.0 0.00 0.00 0.00 45 1020.2
20260508233028 79 314 0.0 10.0 0.00 0.00 0.00 43 1020.3
20260508232527 79 22 0.0 10.0 0.00 0.00 0.00 42 1020.3
20260508232027 78 194 0.0 8.0 0.00 0.00 0.00 45 1020.3
20260508231527 79 299 3.0 9.0 0.00 0.00 0.00 41 1020.4
20260508231026 79 313 2.0 9.0 0.00 0.00 0.00 40 1020.4
20260508230525 79 292 0.0 8.0 0.00 0.00 0.00 40 1020.4
20260508230025 79 340 0.0 8.0 0.00 0.00 0.00 39 1020.5
20260508225525 79 302 2.0 9.0 0.00 0.00 0.00 38 1020.5
20260508225025 79 309 1.0 9.0 0.00 0.00 0.00 37 1020.6
20260508224546 79 334 0.0 8.0 0.00 0.00 0.00 37 1020.6
20260508224023 79 311 1.0 8.0 0.00 0.00 0.00 37 1020.7
20260508223523 78 288 0.0 8.0 0.00 0.00 0.00 37 1020.7
20260508223023 79 310 2.0 8.0 0.00 0.00 0.00 35 1020.8
20260508222522 79 316 1.0 7.0 0.00 0.00 0.00 35 1020.8
20260508222027 79 302 0.0 7.0 0.00 0.00 0.00 33 1020.9
20260508221527 80 319 2.0 6.0 0.00 0.00 0.00 32 1021.0
20260508221029 80 269 1.0 7.0 0.00 0.00 0.00 33 1021.0
20260508220531 80 319 0.0 7.0 0.00 0.00 0.00 33 1021.0
20260508220032 80 313 0.0 5.0 0.00 0.00 0.00 31 1021.0
20260508215526 79 287 1.0 7.0 0.00 0.00 0.00 29 1021.0
20260508215026 79 317 2.0 6.0 0.00 0.00 0.00 32 1021.1
20260508214536 80 15 0.0 5.0 0.00 0.00 0.00 36 1021.2
20260508214023 79 323 0.0 4.0 0.00 0.00 0.00 36 1021.2
20260508213522 79 326 0.0 4.0 0.00 0.00 0.00 37 1021.3
20260508213029 78 331 0.0 2.0 0.00 0.00 0.00 38 1021.4
20260508212522 77 294 0.0 4.0 0.00 0.00 0.00 39 1021.4
20260508212021 76 293 0.0 6.0 0.00 0.00 0.00 42 1021.4
20260508211524 76 306 1.0 5.0 0.00 0.00 0.00 41 1021.5
20260508211013 77 284 1.0 5.0 0.00 0.00 0.00 41 1021.5
20260508210513 77 300 1.0 5.0 0.00 0.00 0.00 41 1021.5
20260508210016 77 304 0.0 5.0 0.00 0.00 0.00 42 1021.6
20260508205512 77 273 0.0 5.0 0.00 0.00 0.00 38 1021.6
20260508205015 77 271 0.0 3.0 0.00 0.00 0.00 39 1021.6
20260508204512 77 280 0.0 2.0 0.00 0.00 0.00 38 1021.6
20260508204012 78 283 0.0 2.0 0.00 0.00 0.00 38 1021.6
20260508203519 78 275 0.0 2.0 0.00 0.00 0.00 38 1021.8
20260508203013 78 275 0.0 2.0 0.00 0.00 0.00 38 1021.8
20260508202511 78 284 0.0 2.0 0.00 0.00 0.00 37 1021.9
20260508202011 78 267 0.0 1.0 0.00 0.00 0.00 36 1021.9
20260508201511 77 191 0.0 3.0 0.00 0.00 0.00 40 1021.9
20260508201010 77 190 0.0 3.0 0.00 0.00 0.00 39 1021.9
20260508200509 76 315 0.0 3.0 0.00 0.00 0.00 41 1021.9
20260508200024 76 315 0.0 3.0 0.00 0.00 0.00 39 1022.0
20260508195509 75 334 0.0 3.0 0.00 0.00 0.00 42 1022.0
20260508195007 75 339 0.0 3.0 0.00 0.00 0.00 43 1022.1
20260508194511 75 319 0.0 2.0 0.00 0.00 0.00 43 1022.1
20260508194011 75 256 0.0 0.0 0.00 0.00 0.00 44 1022.2
20260508193503 74 256 0.0 0.0 0.00 0.00 0.00 44 1022.4
20260508193002 73 246 0.0 3.0 0.00 0.00 0.00 48 1022.4
20260508192503 72 234 0.0 3.0 0.00 0.00 0.00 49 1022.5
20260508192100 71 244 0.0 3.0 0.00 0.00 0.00 51 1022.5
20260508191559 71 239 0.0 3.0 0.00 0.00 0.00 53 1022.6
20260508190600 70 227 0.0 3.0 0.00 0.00 0.00 55 1022.6
20260508190058 70 236 0.0 3.0 0.00 0.00 0.00 56 1022.6
20260508185559 69 220 0.0 5.0 0.00 0.00 0.00 56 1022.7
20260508185055 68 198 1.0 7.0 0.00 0.00 0.00 60 1022.8
20260508184556 67 236 0.0 7.0 0.00 0.00 0.00 59 1022.8
20260508184055 67 232 0.0 4.0 0.00 0.00 0.00 61 1022.7
20260508183552 67 211 0.0 4.0 0.00 0.00 0.00 63 1022.8
20260508183113 67 251 0.0 4.0 0.00 0.00 0.00 62 1022.9
20260508182552 66 222 0.0 5.0 0.00 0.00 0.00 62 1022.8
20260508182056 66 249 0.0 7.0 0.00 0.00 0.00 63 1022.9
20260508181608 66 258 0.0 7.0 0.00 0.00 0.00 64 1022.9
20260508180547 65 237 0.0 5.0 0.00 0.00 0.00 64 1022.9
20260508180045 65 251 0.0 7.0 0.00 0.00 0.00 64 1022.8
20260508175548 65 287 1.0 7.0 0.00 0.00 0.00 63 1022.8
20260508175047 64 270 1.0 8.0 0.00 0.00 0.00 65 1022.8
20260508174542 64 232 1.0 8.0 0.00 0.00 0.00 66 1022.9
20260508174042 64 246 2.0 6.0 0.00 0.00 0.00 67 1022.9
20260508173541 63 284 1.0 6.0 0.00 0.00 0.00 67 1022.9
20260508173040 63 292 0.0 7.0 0.00 0.00 0.00 71 1022.9
20260508172538 62 227 1.0 7.0 0.00 0.00 0.00 71 1023.0
20260508172038 62 234 0.0 7.0 0.00 0.00 0.00 71 1023.0
20260508171546 62 254 1.0 7.0 0.00 0.00 0.00 70 1023.0
20260508170539 62 273 1.0 7.0 0.00 0.00 0.00 69 1022.8
20260508170039 62 277 0.0 6.0 0.00 0.00 0.00 70 1022.7
20260508165538 62 261 0.0 7.0 0.00 0.00 0.00 71 1022.7
20260508165039 62 265 0.0 7.0 0.00 0.00 0.00 70 1022.6
20260508164537 62 299 1.0 7.0 0.00 0.00 0.00 71 1022.6
20260508164037 62 240 0.0 7.0 0.00 0.00 0.00 71 1022.8
20260508163536 62 259 0.0 6.0 0.00 0.00 0.00 72 1022.7
20260508163037 61 254 0.0 8.0 0.00 0.00 0.00 73 1022.8
20260508162534 61 230 0.0 2.0 0.00 0.00 0.00 73 1022.8
20260508162036 60 275 0.0 3.0 0.00 0.00 0.00 73 1022.8
20260508161537 60 261 0.0 4.0 0.00 0.00 0.00 73 1022.9
20260508160531 59 207 0.0 7.0 0.00 0.00 0.00 74 1022.8
20260508160035 59 248 1.0 8.0 0.00 0.00 0.00 74 1022.8
20260508155533 58 284 1.0 8.0 0.00 0.00 0.00 73 1022.8
20260508155030 58 266 0.0 5.0 0.00 0.00 0.00 74 1022.8
20260508154530 58 292 0.0 5.0 0.00 0.00 0.00 74 1022.7
20260508154029 57 254 0.0 4.0 0.00 0.00 0.00 74 1022.8
20260508153530 57 251 0.0 4.0 0.00 0.00 0.00 74 1022.8
20260508153029 56 289 0.0 8.0 0.00 0.00 0.00 76 1022.8
20260508152529 56 236 1.0 8.0 0.00 0.00 0.00 76 1022.8
20260508152029 56 268 0.0 6.0 0.00 0.00 0.00 76 1022.8
20260508151529 56 286 1.0 9.0 0.00 0.00 0.00 76 1022.7
20260508150527 56 240 0.0 10.0 0.00 0.00 0.00 75 1022.7
20260508150037 56 264 1.0 9.0 0.00 0.00 0.00 74 1022.7
20260508145527 56 224 1.0 9.0 0.00 0.00 0.00 75 1022.6
20260508145028 56 270 0.0 5.0 0.00 0.00 0.00 76 1022.6
20260508144539 56 247 0.0 6.0 0.00 0.00 0.00 76 1022.6
20260508144027 56 278 1.0 6.0 0.00 0.00 0.00 77 1022.6
20260508143526 56 288 0.0 7.0 0.00 0.00 0.00 77 1022.6
20260508143035 56 321 0.0 7.0 0.00 0.00 0.00 77 1022.6
20260508142525 56 287 0.0 5.0 0.00 0.00 0.00 76 1022.4
20260508142024 56 278 0.0 5.0 0.00 0.00 0.00 76 1022.3
20260508141527 56 257 0.0 4.0 0.00 0.00 0.00 76 1022.2
20260508140524 55 269 0.0 7.0 0.00 0.00 0.00 77 1022.1
20260508140034 55 246 1.0 8.0 0.00 0.00 0.00 76 1022.1
20260508135523 55 271 0.0 7.0 0.00 0.00 0.00 77 1022.1
20260508135022 55 237 2.0 7.0 0.00 0.00 0.00 77 1022.1
20260508134524 55 263 1.0 7.0 0.00 0.00 0.00 78 1022.1
20260508134022 54 279 0.0 9.0 0.00 0.00 0.00 78 1022.0
20260508133524 54 280 1.0 9.0 0.00 0.00 0.00 79 1022.0
20260508133020 54 272 1.0 7.0 0.00 0.00 0.00 79 1021.9
20260508132520 54 312 1.0 7.0 0.00 0.00 0.00 79 1021.9
20260508132019 54 228 1.0 8.0 0.00 0.00 0.00 78 1021.8
20260508131520 54 252 0.0 8.0 0.00 0.00 0.00 79 1021.8
20260508130519 54 299 2.0 6.0 0.00 0.00 0.00 78 1021.6
20260508130024 54 285 0.0 6.0 0.00 0.00 0.00 78 1021.7
20260508125519 54 278 0.0 11.0 0.00 0.00 0.00 77 1021.7
20260508125020 54 224 1.0 11.0 0.00 0.00 0.00 76 1021.6
20260508124517 55 281 2.0 9.0 0.00 0.00 0.00 76 1021.5
20260508124017 55 290 2.0 9.0 0.00 0.00 0.00 76 1021.5
20260508123517 55 325 1.0 10.0 0.00 0.00 0.00 77 1021.4
20260508123018 55 285 3.0 9.0 0.00 0.00 0.00 77 1021.3
20260508122518 55 299 0.0 6.0 0.00 0.00 0.00 78 1021.3
20260508122016 55 244 2.0 9.0 0.00 0.00 0.00 79 1021.3
20260508121522 55 269 0.0 6.0 0.00 0.00 0.00 78 1021.3
20260508120518 55 230 1.0 6.0 0.00 0.00 0.00 76 1021.3
20260508120022 55 278 0.0 8.0 0.00 0.00 0.00 77 1021.3
20260508115517 55 263 1.0 8.0 0.00 0.00 0.00 78 1021.3
20260508115017 55 251 0.0 9.0 0.00 0.00 0.00 79 1021.4
20260508114528 55 249 1.0 7.0 0.00 0.00 0.00 79 1021.4
20260508114020 54 240 1.0 5.0 0.00 0.00 0.00 78 1021.5
20260508113516 54 222 2.0 5.0 0.00 0.00 0.00 79 1021.5
20260508113018 54 253 1.0 5.0 0.00 0.00 0.00 78 1021.6
20260508112514 54 234 1.0 7.0 0.00 0.00 0.00 77 1021.6
20260508112014 55 257 1.0 7.0 0.00 0.00 0.00 76 1021.6
20260508111513 55 244 2.0 7.0 0.00 0.00 0.00 74 1021.5
20260508110513 55 270 2.0 8.0 0.00 0.00 0.00 70 1021.6
20260508110010 55 255 1.0 8.0 0.00 0.00 0.00 69 1021.6
20260508105510 56 286 1.0 9.0 0.00 0.00 0.00 67 1021.6
20260508105010 56 271 2.0 9.0 0.00 0.00 0.00 67 1021.6
20260508104509 56 246 1.0 8.0 0.00 0.00 0.00 68 1021.5
20260508104011 56 288 1.0 8.0 0.00 0.00 0.00 70 1021.4
20260508103508 56 245 1.0 7.0 0.00 0.00 0.00 69 1021.4
20260508103008 56 263 0.0 7.0 0.00 0.00 0.00 69 1021.4
20260508102508 56 287 0.0 7.0 0.00 0.00 0.00 69 1021.4
20260508102007 56 241 1.0 7.0 0.00 0.00 0.00 71 1021.3
20260508101507 56 248 1.0 5.0 0.00 0.00 0.00 70 1021.3
20260508100541 57 290 0.0 7.0 0.00 0.00 0.00 68 1021.2
20260508100041 57 305 2.0 7.0 0.00 0.00 0.00 68 1021.3
20260508095543 57 288 1.0 8.0 0.00 0.00 0.00 67 1021.3
20260508095040 57 242 1.0 8.0 0.00 0.00 0.00 69 1021.4
20260508094539 57 266 1.0 7.0 0.00 0.00 0.00 70 1021.4
20260508094038 57 276 0.0 8.0 0.00 0.00 0.00 69 1021.3
20260508093536 58 249 0.0 8.0 0.00 0.00 0.00 67 1021.3
20260508093036 58 320 1.0 10.0 0.00 0.00 0.00 65 1021.3
20260508092535 59 299 2.0 10.0 0.00 0.00 0.00 61 1021.3
20260508092032 59 240 1.0 9.0 0.00 0.00 0.00 60 1021.4
20260508091533 59 303 1.0 9.0 0.00 0.00 0.00 58 1021.5
20260508090556 59 263 1.0 9.0 0.00 0.00 0.00 57 1021.4
20260508090059 60 158 0.0 6.0 0.00 0.00 0.00 59 1021.4
20260508085554 60 291 1.0 9.0 0.00 0.00 0.00 60 1021.5
20260508085054 60 330 2.0 9.0 0.00 0.00 0.00 60 1021.4
20260508084554 60 284 2.0 7.0 0.00 0.00 0.00 61 1021.4
20260508084055 60 311 0.0 7.0 0.00 0.00 0.00 63 1021.4
20260508083554 60 264 2.0 7.0 0.00 0.00 0.00 62 1021.5
20260508083054 60 249 1.0 8.0 0.00 0.00 0.00 61 1021.5
20260508082554 60 302 1.0 8.0 0.00 0.00 0.00 62 1021.6
20260508082054 60 286 3.0 8.0 0.00 0.00 0.00 64 1021.6
20260508081604 60 296 2.0 6.0 0.00 0.00 0.00 63 1021.6
20260508080526 61 295 3.0 9.0 0.00 0.00 0.00 60 1021.7
20260508080022 61 314 2.0 7.0 0.00 0.00 0.00 58 1021.6
20260508075523 61 314 1.0 7.0 0.00 0.00 0.00 57 1021.6
20260508075025 61 248 0.0 9.0 0.00 0.00 0.00 56 1021.6
20260508074522 61 278 0.0 6.0 0.00 0.00 0.00 57 1021.6
20260508074022 61 233 0.0 6.0 0.00 0.00 0.00 54 1021.6
20260508073522 61 272 0.0 6.0 0.00 0.00 0.00 55 1021.6
20260508073022 62 265 1.0 6.0 0.00 0.00 0.00 55 1021.6
20260508072524 62 289 1.0 6.0 0.00 0.00 0.00 56 1021.5
20260508072022 62 287 1.0 8.0 0.00 0.00 0.00 59 1021.5
20260508071522 62 250 1.0 8.0 0.00 0.00 0.00 56 1021.4
20260508070553 62 265 1.0 11.0 0.00 0.00 0.00 54 1021.4
20260508070059 62 281 2.0 11.0 0.00 0.00 0.00 49 1021.5
20260508065553 62 251 1.0 7.0 0.00 0.00 0.00 48 1021.4
20260508065052 62 224 1.0 8.0 0.00 0.00 0.00 50 1021.5
20260508064605 63 303 1.0 10.0 0.00 0.00 0.00 51 1021.4
20260508064053 63 303 1.0 10.0 0.00 0.00 0.00 52 1021.5
20260508063553 63 281 1.0 7.0 0.00 0.00 0.00 55 1021.5
20260508063052 63 311 1.0 8.0 0.00 0.00 0.00 54 1021.4
20260508062552 63 292 2.0 8.0 0.00 0.00 0.00 52 1021.5
20260508062052 63 311 1.0 8.0 0.00 0.00 0.00 52 1021.5
20260508061559 63 292 1.0 9.0 0.00 0.00 0.00 50 1021.5
20260508060553 63 274 1.0 8.0 0.00 0.00 0.00 48 1021.4
20260508060052 63 294 2.0 8.0 0.00 0.00 0.00 52 1021.4
20260508055553 63 273 2.0 9.0 0.00 0.00 0.00 54 1021.3
20260508055052 63 297 3.0 8.0 0.00 0.00 0.00 58 1021.2
20260508054620 63 299 1.0 8.0 0.00 0.00 0.00 60 1021.3
20260508054053 64 312 1.0 8.0 0.00 0.00 0.00 57 1021.3
20260508053551 64 302 1.0 7.0 0.00 0.00 0.00 53 1021.3
20260508053052 64 307 0.0 8.0 0.00 0.00 0.00 54 1021.3
20260508052558 64 221 1.0 9.0 0.00 0.00 0.00 51 1021.3
20260508052055 64 201 1.0 10.0 0.00 0.00 0.00 55 1021.3